This is the latest recevied weather packets stored in our database for station/object N5TSS. If no packets are shown the sender has not sent any weather packets the latest 1 day(s).
| Time | Temp. | Humidity | Pressure | Rain* | Wind** | Luminosity | Snow |
|---|---|---|---|---|---|---|---|
| 1836274639 | 26.67° C | 80% | 1016.6 hPa | 0 mm | 0.45 m/s, 174° | - | - |
| 1836274492 | 26.67° C | 80% | 1016.9 hPa | 0 mm | 0.89 m/s, 129° | - | - |
| 1836274336 | 26.67° C | 79% | 1016.6 hPa | 0 mm | 0.89 m/s, 160° | - | - |
| 1836274190 | 26.67° C | 81% | 1016.9 hPa | 0 mm | 0.89 m/s, 159° | - | - |
| 1836274035 | 26.67° C | 79% | 1016.9 hPa | 0 mm | 0.89 m/s, 130° | - | - |
| 1778047574 | 25° C | 84% | 1010.5 hPa | 0 mm | 0.89 m/s, 166° | - | - |
| 1778047257 | 25° C | 84% | 1010.5 hPa | 0 mm | 1.79 m/s, 147° | - | - |
| 1778046954 | 25° C | 84% | 1010.5 hPa | 0 mm | 1.34 m/s, 177° | - | - |
| 1778046651 | 25° C | 84% | 1010.8 hPa | 0 mm | 0.89 m/s, 183° | - | - |
| 1778046348 | 25° C | 84% | 1010.5 hPa | 0 mm | 0.45 m/s, 160° | - | - |
| 1778046043 | 25° C | 84% | 1010.5 hPa | 0 mm | 1.79 m/s, 142° | - | - |
| 1778045742 | 25° C | 84% | 1010.8 hPa | 0 mm | 0.89 m/s, 171° | - | - |
| 1778045440 | 25° C | 84% | 1010.8 hPa | 0 mm | 1.34 m/s, 167° | - | - |
| 1778045138 | 25° C | 84% | 1010.8 hPa | 0 mm | 1.34 m/s, 164° | - | - |
| 1778044835 | 25° C | 84% | 1010.5 hPa | 0 mm | 1.34 m/s, 171° | - | - |
| 1778044532 | 25° C | 83% | 1010.5 hPa | 0 mm | 1.34 m/s, 193° | - | - |
| 1778044229 | 25° C | 83% | 1010.5 hPa | 0 mm | 1.34 m/s, 182° | - | - |
| 1778043927 | 25° C | 83% | 1010.5 hPa | 0 mm | 1.34 m/s, 184° | - | - |
| 1778043624 | 25° C | 83% | 1010.5 hPa | 0 mm | 1.34 m/s, 182° | - | - |
| 1778043320 | 25° C | 83% | 1010.5 hPa | 0 mm | 1.79 m/s, 162° | - | - |
| 1778043017 | 25° C | 83% | 1010.5 hPa | 0 mm | 1.34 m/s, 165° | - | - |
| 1778042715 | 25° C | 83% | 1010.5 hPa | 0 mm | 2.24 m/s, 180° | - | - |
| 1778042412 | 25° C | 83% | 1010.5 hPa | 0 mm | 0.89 m/s, 162° | - | - |
| 1778042109 | 25° C | 83% | 1010.5 hPa | 0 mm | 0.89 m/s, 201° | - | - |
| 1778041807 | 25° C | 83% | 1010.2 hPa | 0 mm | 1.79 m/s, 167° | - | - |
* Rain latest hour (hover to see other rain measurements)
** Current wind speed in m/s (hover to see current wind gust speed)